Regional Weather Roundup
Issued by NWS Albany, NY

Home | Current Version | Previous Version | Text Only | Print | Product List | Glossary On
Versions: 1 2 3 4 5 6 7 8 9 10 11 12 13 14 15 16 17 18 19 20 21 22 23 24 25 26 27 28 29 30 31 32 33 34 35
000
ASUS41 KALY 230110
RWRALY

NEW YORK STATE HOURLY WEATHER ROUNDUP
NATIONAL WEATHER SERVICE ALBANY NY
900 PM EDT WED OCT 22 2014

NOTE: "FAIR" INDICATES FEW OR NO CLOUDS BELOW 12,000 FEET WITH NO
SIGNIFICANT WEATHER AND/OR NO OBSTRUCTIONS TO VISIBILITY.

NYZ032-033-038>043-046>054-057>066-NYZ062>081-230200-
EAST


CITY           SKY/WX    TMP DP  RH WIND       PRES   REMARKS
ALBANY         LGT RAIN  51  44  77 N12G23    29.98F
GLENS FALLS    LGT RAIN  52  43  71 N16G23    30.01F
POUGHKEEPSIE   LGT RAIN  50  46  86 N15G23    29.86F
NEWBURGH       CLOUDY    50  48  93 N25G35    29.87F FOG
MONTGOMERY     LGT RAIN  51  48  89 N12       29.86S
WHITE PLAINS   RAIN      51  47  86 N21G33    29.75F FOG
ISLIP          LGT RAIN  52  47  83 N25G40    29.67F
NEW YORK CITY  RAIN      53  49  86 N18G31    29.76F
CENTRAL PARK   RAIN      51  48  89 MISG      29.79F FOG
$$

NYZ005>009-017-018-044>046-055-056-230200-
CENTRAL


CITY           SKY/WX    TMP DP  RH WIND       PRES   REMARKS
FULTON         CLOUDY    49  40  71 N14       30.14S
SYRACUSE       LGT RAIN  47  43  86 NW6       30.12S
ROME           CLOUDY    48  42  80 VRB5      30.09S
ELMIRA         CLOUDY    49  44  83 N16G26    30.08F
BINGHAMTON     CLOUDY    45  42  89 N16       30.03R
MONTICELLO     CLOUDY    48  45  87 N16G23    29.91S
$$

NYZ026>034-041>043-230200-
NORTH


CITY           SKY/WX    TMP DP  RH WIND       PRES   REMARKS
WATERTOWN      MOCLDY    48  37  65 NE12      30.17F
FORT DRUM      NOT AVBL
MASSENA        CLOUDY    49  35  58 NE14      30.22S
SARANAC LAKE   CLOUDY    43  38  82 NE12      30.11S
PLATTSBURGH    CLOUDY    50  37  61 N22G31    30.15F
$$

NYZ001>004-010>016-019>021-230200-
WEST


CITY           SKY/WX    TMP DP  RH WIND       PRES   REMARKS
NIAGARA FALLS  CLOUDY    47  41  80 NW5       30.22S
BUFFALO        MOCLDY    47  40  76 NW5       30.21S
DUNKIRK        CLOUDY    46  42  86 SE3       30.22S
JAMESTOWN      CLOUDY    43  37  81 N6        30.19F
WELLSVILLE     CLOUDY    41  40  96 VRB7G16   30.14F
ROCHESTER      CLOUDY    50  42  74 N16       30.20R
PENN YAN       CLOUDY    48  43  82 N9G20     30.14F
$$

             KEY
       WCI = WIND CHILL INDEX
       VSB = VISIBILITY
       HX  = HEAT INDEX
$$



USA.gov is the U.S. government's official web portal to all federal, state and local government web resources and services.